Tracking 30260 objects as of 15-Feb-2025
HD Live streaming from Space Station
objects crossing your sky now

SL-6 R/B(2)

Track SL-6 R/B(2) now!


NORAD ID: 14796
Int'l Code: 1984-024D
Perigee: 6,314.3 km
Apogee: 33,660.3 km
Inclination: 71.2 °
Period: 709.8 minutes
Semi major axis: 26358 km
RCS: 6.8684 m2 (large)
Launch date: March 6, 1984
Source: Commonwealth of Independent States (former USSR) (CIS)
Launch site: PLESETSK MISSILE AND SPACE COMPLEX (PKMTR)

Note: This is a ROCKET BODY
Your satellite tracking list
Your tracking list is empty




NASA's NSSDC Master Catalog

Two Line Element Set (TLE):
1 14796U 84024D   25044.67630975 -.00000043  00000-0  00000-0 0  9991
2 14796  71.2387 104.8930 5187364 346.5827 120.8398  2.02874117303190
Source of the keplerian elements: AFSPC